Oran, Algeria

12:47 AM CET on September 19, 2019 (GMT +0100)
Oran

Weather History for DAOO - August, 2019

Change the Weather History Date:

Monday, August 19, 2019

  Actual Average Record
Temperature  
Mean Temperature 81 °F -  
Max Temperature 95 °F 86 °F - ()
Min Temperature 67 °F 64 °F - ()
Cooling Degree Days 16    
Growing Degree Days 31 (Base 50)    
Moisture  
Dew Point 63 °F    
Average Humidity 57    
Maximum Humidity 88    
Minimum Humidity 19    
Precipitation  
Precipitation 0.00 in 0.01 in - ()
Sea Level Pressure  
Sea Level Pressure 29.93 in    
Wind  
Wind Speed 6 mph ()    
Max Wind Speed 14 mph    
Max Gust Speed -    
Visibility 8.1 miles    
Events      
T = Trace of Precipitation, MM = Missing Value Source: Averaged Metar Reports

Daily Weather History Graph

Daily Weather History Graph

Search for Another Location

Airport or City:

Astronomy

Aug. 19, 2019 Rise Set
Actual Time 6:24 AM CET 7:47 PM CET
Civil Twilight 5:57 AM CET 8:14 PM CET
Nautical Twilight 5:25 AM CET 8:46 PM CET
Astronomical Twilight 4:51 AM CET 9:19 PM CET
Moon 10:09 PM CET (8/19) 9:45 AM CET (8/19)
Length of Visible Light 14h 16m
Length of Day
13h 23m
Waning Gibbous, 87% of the Moon is Illuminated
Aug 19
Waning Gibbous
Aug 23
Last Quarter
Aug 30
New
Sep 6
First Quarter
Sep 14
Full

Hourly Weather History & Observations

Time (CET) Temp. Heat Index Dew Point Humidity Pressure Visibility Wind Dir Wind Speed Gust Speed Precip Events Conditions
12:00 AM 75.2 °F - 69.8 °F 83% 29.95 in - WSW 6.9 mph - N/A   Clear
12:30 AM 75.2 °F - 69.8 °F 83% 29.95 in - SSW 8.1 mph - N/A   Clear
1:00 AM 74 °F - 70 °F 82% 29.94 in 6 mi SSW 6.9 mph - -  
1:00 AM 75.2 °F - 69.8 °F 83% 29.95 in - SSW 6.9 mph - N/A   Clear
1:30 AM 73.4 °F - 69.8 °F 88% 29.95 in - WSW 5.8 mph - N/A   Clear
2:30 AM 73.4 °F - 69.8 °F 88% 29.92 in - SSW 8.1 mph - N/A   Clear
3:00 AM 73.4 °F - 68.0 °F 83% 29.92 in - SSW 6.9 mph - N/A   Clear
3:30 AM 73.4 °F - 68.0 °F 83% 29.92 in - SSW 6.9 mph - N/A   Clear
4:00 AM 71 °F - 66 °F 80% 29.91 in 6 mi SW 3.5 mph - -  
4:00 AM 71.6 °F - 66.2 °F 83% 29.92 in - SW 3.5 mph - N/A   Clear
4:30 AM 71.6 °F - 66.2 °F 83% 29.92 in - West 3.5 mph - N/A   Clear
5:00 AM 69.8 °F - 66.2 °F 88% 29.92 in - SW 3.5 mph - N/A   Clear
6:00 AM 68.0 °F - 64.4 °F 88% 29.92 in - SW 1.2 mph - N/A   Clear
6:30 AM 68.0 °F - 62.6 °F 83% 29.92 in - Calm Calm - N/A   Clear
7:00 AM 70 °F - 62 °F 67% 29.93 in 9 mi SSW 2.3 mph - -  
7:00 AM 69.8 °F - 60.8 °F 73% 29.92 in - SSW 2.3 mph - N/A   Clear
7:30 AM 71.6 °F - 64.4 °F 78% 29.95 in - North 2.3 mph - N/A   Clear
8:00 AM 75.2 °F - 64.4 °F 69% 29.95 in - SSW 2.3 mph - N/A   Clear
8:30 AM 75.2 °F - 64.4 °F 69% 29.95 in - SSW 2.3 mph - N/A   Clear
9:30 AM 82.4 °F 83.4 °F 62.6 °F 51% 29.95 in - South 8.1 mph - N/A   Clear
10:00 AM 88 °F - 59 °F 27% 29.94 in 9 mi SSW 8.1 mph - -  
10:00 AM 87.8 °F 87.1 °F 59.0 °F 38% 29.95 in - SSW 8.1 mph - N/A   Clear
10:30 AM 87.8 °F 87.1 °F 59.0 °F 38% 29.95 in - SSW 8.1 mph - N/A   Clear
11:00 AM 87.8 °F 87.1 °F 59.0 °F 38% 29.95 in - SSW 8.1 mph - N/A   Clear
11:30 AM 93.2 °F 91.9 °F 57.2 °F 30% 29.95 in - SSW 10.4 mph - N/A   Clear
12:00 PM 93.2 °F 92.6 °F 59.0 °F 32% 29.95 in - North 6.9 mph - N/A   Clear
1:00 PM 93 °F - 62 °F 26% 29.94 in 9 mi North 12.7 mph - -  
1:00 PM 93.2 °F 94.1 °F 62.6 °F 36% 29.95 in - North 12.7 mph - N/A   Clear
1:30 PM 93.2 °F 94.1 °F 62.6 °F 36% 29.95 in - North 12.7 mph - N/A   Clear
2:00 PM 93.2 °F 94.1 °F 62.6 °F 36% 29.95 in - North 12.7 mph - N/A   Clear
2:30 PM 93.2 °F 94.1 °F 62.6 °F 36% 29.95 in - North 12.7 mph - N/A   Clear
3:00 PM 93.2 °F 94.1 °F 62.6 °F 36% 29.95 in - North 12.7 mph - N/A   Clear
3:30 PM 93.2 °F 94.1 °F 62.6 °F 36% 29.95 in - North 12.7 mph - N/A   Clear
4:00 PM 93 °F - 56 °F 19% 29.95 in 9 mi NW 13.8 mph - -  
5:00 PM 93.2 °F 91.3 °F 55.4 °F 28% 29.89 in - NW 13.8 mph - N/A   Clear
7:00 PM 88 °F - 55 °F 22% 29.88 in 9 mi NNW 11.5 mph - -  
7:00 PM 87.8 °F 86.1 °F 55.4 °F 33% 29.89 in - NNW 11.5 mph - N/A   Clear
8:30 PM 82.4 °F 81.7 °F 55.4 °F 39% 29.89 in - North 6.9 mph - N/A   Clear
9:00 PM 82.4 °F 81.7 °F 55.4 °F 39% 29.92 in - NNE 5.8 mph - N/A   Clear
9:30 PM 82.4 °F 81.7 °F 55.4 °F 39% 29.92 in - NE 4.6 mph - N/A   Clear
10:30 PM 78.8 °F - 60.8 °F 54% 29.95 in - North 3.5 mph - N/A   Clear
11:00 PM 78.8 °F - 68.0 °F 69% 29.95 in - NNW 5.8 mph - N/A   Clear
11:30 PM 77.0 °F - 69.8 °F 78% 29.95 in - North 3.5 mph - N/A   Clear